Location: Obersdorf
(47.4079°N, 10.2781°E)
Time: 21:18:03
(UTC+01:00)

AO-109 - Pass Details

Date: 02 December 2021
Orbit: 479 x 515 km, 60.7° (Epoch: 27 January)

Event Time Altitude Azimuth Distance (km) Brightness Sun altitude
Exits shadow 04:49:18 16° 46° (NE) 1,336 ? -29.2°
Drops below altitude 10° 04:50:48 10° 68° (ENE) 1,658 ? -28.9°
Sets 04:53:29 0° 88° (E) 2,535 ? -28.5°
